Hourly Data Report for January 02, 2021

STE-ANNE-DE-BELLEVUE 1
QUEBEC
Current Station Operator: ECCC - MSC

45°25'38.000" N
73°55'45.000" W
39.00 m
702FHL8
71377
WVQ

Download Data

Hourly Data (January 2021)
Hourly Data Report for January 2, 2021
TIME
LST
Temp Definition
°C
Dew Point Definition
°C
Rel Hum Definition
%
Precip. Amount Definition
mm

Wind Dir Definition
10's deg

Wind Spd Definition
km/h
Visibility Definition
km
Stn Press Definition
kPa
Hmdx Definition


Wind Chill Definition


Weather Definition


00:00 -2.7 -6.6 75 0.0 8 11   101.44   -7 LegendNANA
01:00 -3.9 -4.9 93 1.2 6 13   101.29   -9 LegendNANA
02:00 -4.0 -4.9 93 0.5 6 13   101.07   -9 LegendNANA
03:00 -3.8 -4.6 94 0.3 6 11   100.87   -8 LegendNANA
04:00 -3.9 -4.8 94 0.2 5 14   100.70   -9 LegendNANA
05:00 -3.8 -4.5 94 0.4 4 12   100.51   -8 LegendNANA
06:00 -4.4 -5.2 94 1.1 4 18   100.35   -10 LegendNANA
07:00 -4.8 -5.6 94 1.9 4 18   100.34   -11 LegendNANA
08:00 -4.9 -5.8 93 1.1 3 19   100.31   -11 LegendNANA
09:00 -4.9 -5.9 93 0.6 2 17   100.37   -11 LegendNANA
10:00 -4.8 -6.1 91 0.0 36 20   100.52   -11 LegendNANA
11:00 -4.1 -5.6 89 0.0 1 18   100.59   -10 LegendNANA
12:00 -3.1 -5.6 83 0.0 35 15   100.65   -8 LegendNANA
13:00 -2.0 -5.6 76 0.0 32 10   100.76   -6 LegendNANA
14:00 -1.1 -5.4 72 0.2 28 8   100.82   -4 LegendNANA
15:00 -0.7 -5.2 72 0.0 26 12   100.97   -5 LegendNANA
16:00 -1.0 -5.2 73 0.0 25 9   101.09   -4 LegendNANA
17:00 -1.7 -5.0 79 0.0 26 16   101.21   -7 LegendNANA
18:00 -2.1 -5.1 80 0.0 27 11   101.31   -6 LegendNANA
19:00 -3.6 -5.6 86 0.0 25 7   101.45   -7 LegendNANA
20:00 -2.4 -5.0 82 0.0 26 10   101.52   -6 LegendNANA
21:00 -1.8 -5.0 79 0.0 27 8   101.57   -5 LegendNANA
22:00 -1.8 -4.9 79 0.0 29 6   101.62   -4 LegendNANA
23:00 -2.2 -4.9 81 0.0 25 5   101.65   -4 LegendNANA

Notes on Data Quality.

Legend

  • E = Estimated
  • M = Missing
  • NA = Not Available*
  • [empty] = Indicates an unobserved value
Date modified: